Location: Bailleul
(50.3375°N, 2.8513°E)
Time: 18:25:16
(UTC+00:00)

Terra - Pass Details

Date: 31 July 2021
Orbit: 701 x 703 km, 98.2° (Epoch: 17 September)

Event Time Altitude Azimuth Distance (km) Brightness Sun altitude
Exits shadow 22:14:17 21° 204° (SSW) 1,564 3.2 -18.1°
Maximum altitude 22:17:02 40° 262° (W) 1,039 2.8 -18.3°
Drops below altitude 10° 22:21:32 10° 333° (NNW) 2,184 5.6 -18.6°
Sets 22:23:56 0° 341° (NNW) 3,107 6.8 -18.8°
